www.pogodaiklimat.ru

Погода и климат >> Архив погоды >> Россия >> Красноярский край >> Балахта


ПОГОДА в Балахте

  • Прогноз погоды в Балахте
  • Монитор погоды в Балахте

АРХИВ ПОГОДЫ в Балахте

Время (UTC), дата Ветер
(напр.,м/с)
 
Видим.   Явления Облачность Т
(С)
Тd
(С)
f
(%)
Тe
(С)
Тes
(С)
Комфортность P
(гПа)
Po
(гПа)
Тmin
(С)
Tmax
(С)
R
(мм)
R24
(мм)
S
(см)
12 12.02 штиль 0 20 км 8/0
[Ac und]
-23.0 -27.0 70 -23 -23 1036.9 992.4 -21.1
15 12.02 В 1 20 км 10/0
[Ac As]
-25.1 -28.3 75 -29 -29 1036.5 991.7
18 12.02 штиль 0 20 км 10/0
[As op]
-22.0 -26.1 69 -22 -22 1036.4 992.1
21 12.02 штиль 0 20 км 10/0
[Ac As]
-21.1 -24.4 75 -21 -21 1037.0 992.9
00 13.02 штиль 0 4000 м слаб. снег 10/0
[As trans]
-20.8 -24.1 75 -21 -21 1038.6 994.4 -25.6 0.0 15
03 13.02 штиль 0 4000 м слаб. снег 10/0
[Ac As]
-19.2 -28.1 45 -19 -19 1039.0 995.1
06 13.02 штиль 0 4000 м слаб. снег 10/10 1000 м
[Sc]
-15.0 -18.4 75 -15 -15 1037.0 993.9
09 13.02 штиль 0 4000 м слаб. снег 10/0
[Ac As]
-13.2 -16.7 75 -13 -13 1037.3 994.5
12 13.02 штиль 0 4000 м слаб. снег 10/0
[As trans]
-14.6 -17.3 80 -15 -15 1037.3 994.3 -12.9 0.3
15 13.02 штиль 0 20 км {снег} 8/0
[Ac trans]
-15.4 -17.3 85 -15 -15 1037.1 994.0
18 13.02 штиль 0 20 км {снег} ясно -20.2 -21.4 90 -20 -20 1038.1 994.1
21 13.02 В 2 20 км ясно -23.3 -25.1 85 -30 -30 1038.8 994.2
00 14.02 штиль 0 20 км 8/0
[Ac und]
-25.0 -26.8 85 -25 -25 1039.4 994.5 -25.9 0.0 15
03 14.02 В 1 10 км туман на расстоянии 9/0
[Ac und]
-23.0 -24.9 84 -26 -26 1039.4 994.8
06 14.02 штиль 0 10 км туман на расстоянии 9/0
[Ac und]
-16.6 -19.2 80 -17 -15 1038.0 994.5
09 14.02 штиль 0 20 км 4/0
[Ac trans]
-11.9 -16.3 70 -12 -11 1036.5 993.9
12 14.02 штиль 0 20 км 3/0
[Ci sp]
-16.6 -18.5 85 -17 -17 1037.8 994.3 -11.7
15 14.02 штиль 0 20 км ясно -21.2 -23.1 85 -21 -21 1038.3 994.1
18 14.02 штиль 0 20 км 4/0
[Ac trans]
-23.0 -24.9 84 -23 -23 1038.3 993.7
21 14.02 штиль 0 20 км ясно -24.3 -26.1 85 -24 -24 1038.0 993.3
00 15.02 штиль 0 20 км ясно -25.9 -27.8 84 -26 -26 1038.3 993.2 -26.0 15
03 15.02 ЮЗ 1 10 км слаб. снег 10/0
[As op]
-22.1 -24.0 84 -25 -25 1037.5 993.1 -26.1
06 15.02 штиль 0 10 км слаб. снег 10/0
[As op]
-15.0 -17.7 80 -15 -14 1035.6 992.5
09 15.02 штиль 0 20 км {снег} 10/0
[As op]
-11.1 -14.7 75 -11 -11 1034.1 991.7
12 15.02 штиль 0 4000 м слаб. снег 10/0
[As op]
-10.3 -13.1 80 -11 -11 1033.7 991.5 -10.1 0.0
15 15.02 штиль 0 20 км 10/0
[As op]
-11.2 -13.2 85 -11 -11 1032.6 990.3
18 15.02 штиль 0 20 км 4/0
[Ac trans]
-10.7 -12.7 85 -11 -11 1030.6 988.4
21 15.02 штиль 0 20 км ясно -16.0 -17.3 90 -16 -16 1030.3 987.2
00 16.02 штиль 0 20 км ясно -18.0 -19.2 90 -18 -18 1029.2 985.9 -18.2 0.0 15
03 16.02 штиль 0 4000 м дымка 8/0
[Ci sp]
-17.2 -18.4 90 -17 -16 1028.6 985.5 -20.5
06 16.02 штиль 0 20 км 9/3 1000 м
[Sc Cs]
-11.2 -14.8 75 -11 -9 1027.0 985.0
09 16.02 штиль 0 20 км 9/9 1000 м
[Sc]
-7.2 -14.1 58 -8 -8 1025.0 983.6
12 16.02 Ю 2 20 км 9/0
[Ac und]
-5.6 -14.4 50 -9 -9 1023.2 982.2 -5.4
15 16.02 штиль 0 20 км 8/0
[Ac und]
-9.7 -15.5 63 -10 -10 1023.1 981.3
18 16.02 штиль 0 20 км 8/0
[Ac und]
-12.0 -15.5 75 -12 -12 1023.0 981.0
21 16.02 штиль 0 20 км 6/6 1000 м
[Sc]
-7.8 -13.4 64 -8 -8 1021.9 980.5
00 17.02 штиль 0 20 км 10/0
[Ac As]
-12.0 -15.5 75 -12 -12 1022.1 980.1 -13.8 15
03 17.02 штиль 0 20 км 8/0
[Ac trans Ci fib]
-10.5 -13.3 80 -11 -10 1021.5 979.8
06 17.02 Ю 2 20 км 8/8 1000 м
[Sc]
-2.7 -11.7 50 -6 -5 1018.0 977.6
09 17.02 Ю 2 20 км 9/9 1000 м
[Sc]
-1.2 -10.1 51 -4 -4 1016.3 976.2
12 17.02 штиль 0 20 км 9/9 600 м
[Cb cap]
-1.4 -10.4 50 -2 -2 1014.4 974.3 -0.4
15 17.02 Ю 1 20 км 6/6 1000 м
[Sc]
-4.8 -12.5 55 -7 -7 1015.3 974.6
18 17.02 штиль 0 20 км 8/8 1000 м
[Sc]
-6.4 -14.0 55 -7 -7 1013.0 972.3
21 17.02 ЮВ 2 20 км 9/0
[Ac und]
-11.2 -15.6 70 -16 -16 1013.3 971.8
00 18.02 В 2 20 км 4/0
[Ac trans]
-11.8 -16.2 70 -16 -16 1012.4 971.0 -11.9 15
03 18.02 ЮВ 1 20 км 9/0
[Ac lent Ci sp]
-11.4 -15.8 70 -14 -13 1012.2 970.8 -14.0
06 18.02 Ю 2 50 км 9/0
[Cs]
-0.9 -13.9 37 -4 -1 1010.0 970.1
09 18.02 штиль 0 50 км 8/3 1000 м
[Sc Ci sp]
-0.9 -12.1 42 -1 -0 1009.1 969.2
12 18.02 штиль 0 50 км 10/0
[Ac As]
-3.6 -12.7 49 -4 -4 1009.8 969.6 +0.7
15 18.02 Ю 3 50 км 10/0
[Ac As]
-1.9 -12.9 43 -6 -6 1010.2 970.2
18 18.02 штиль 0 50 км 9/0
[Ac As]
-1.5 -12.2 44 -2 -2 1009.9 970.0
21 18.02 штиль 0 50 км 10/10 1000 м
[Sc]
-3.9 -12.6 51 -4 -4 1011.9 971.5
00 19.02 ЮЗ 2 50 км 8/0
[Ci sp]
-4.8 -12.5 55 -9 -9 1013.1 972.5 -4.9 15
03 19.02 З 1 20 км 8/0
[Ac lent Ci sp]
-4.5 -10.6 62 -6 -5 1015.4 974.9 -5.2
06 19.02 З 4 50 км 10/0
[Ac As]
+0.2 -8.2 53 -5 -4 1017.6 977.7

 

Местоположение метеостанции Балахта (Красноярский край, Россия): широта 55.38 долгота 91.67 высота над уровнем моря 321 м.

В архиве по умолчанию представлена погода в Балахте за последнюю неделю. Архивные данные за месяц целиком и за предыдущие месяцы, начиная с января 2011 года, Вы можете получить, выбрав интересующий диапазон дат из раскрывающегося списка и нажав кнопку "Ввод!".


*Определитесь, кто Вы:
робот инопланетянин человек

Внимание! Время в таблицах - всемирное. Для получения местного времени необходимо прибавить поправку, которая равна 7 ч.

Смотрите также архив погоды в соседних городах и на ближайших метеорологических станциях:

Погода в Светлолобово (Красноярский край, Россия) (62 км)
Погода в Шумихе (Красноярский край, Россия) (75 км)
Погода в Кемчуге (Красноярский край, Россия) (80 км)
Погода в Каче (Красноярский край, Россия) (89 км)
Погода в Роевом Ручье (Красноярский край, Россия) (93 км)
Погода в Красноярске (Красноярский край, Россия) (99 км)
Погода в Минино (Красноярский край, Россия) (101 км)
Погода в Емельяново (Красноярский край, Россия) (102 км)
Погода в Первомайском (Хакасия, Россия) (103 км)
Погода в Назарово (Красноярский край, Россия) (111 км)

Пояснения к столбцам:

Ветер - указаны скорость ветра в м/с - средняя за 10 мин, порывы в срок и между сроками (в фигурных скобках) и направление, откуда дует ветер: С - северный, СВ - северо-восточный, В - восточный, ЮВ - юго-восточный, Ю - южный, ЮЗ - юго-западный, З - западный, СЗ - северо-западный.
Видимость - горизонтальная дальность видимости в метрах или километрах. При видимости от 1 до 10 км при отсутствии осадков обычно наблюдается дымка, при ухудшении видимости до 1 км и менее - туман. В сухую погоду видимость может ухудшаться дымом, пылью или мглою.
Явления - указаны атмосферные явления, наблюдавшиеся в срок или в последний час перед сроком; фигурными скобками обозначены явления, наблюдавшиеся между сроками (за 1-3 часа до срока); квадратными скобками обозначены град или гололедные отложения с указанием их диаметра в мм.
Облачность - указаны через наклонную черту общая и нижняя облачность в баллах и высота нижней границы облаков в метрах; квадратными скобками обозначены формы облаков: Ci - перистые, Cs - перисто-слоистые, Cc - перисто-кучевые, Ac - высококучевые, As - высокослоистые, Sc - слоисто-кучевые, Ns - слоисто-дождевые, Cu - кучевые, Cb - кучево-дождевые. Подробнее классификацию облаков см. в Атласе облаков (PDF).
T - Температура воздуха - температура, измеренная на высоте 2 м над землей.
Td - Температура точки росы - температура, при понижении до которой содержащийся в воздухе водяной пар достигнет насыщения.
f - Относительная влажность воздуха - влажноcть воздуха, измеренная на высоте 2 м над землей.
Te - Эффективная температура - температура, которую ощущает одетый по сезону человек в тени. Характеристика душности погоды. При расчете учитывается влияние влажности воздуха и скорости ветра на теплоощущения человека.
Tes - Эффективная температура на солнце - температура, которую ощущает человек, с поправкой на солнечный нагрев. Характеристика знойности погоды. Зависит от высоты солнца над горизонтом, облачности и скорости ветра. Ночью, в пасмурную погоду, а также при ветре 12 м/с и более поправка равна нулю.
P - Атмосферное давление - приведенное к уровню моря атмосферное давление.
Po - Атмосферное давление - измеренное на уровне метеостанции атмосферное давление.
Tmin - Минимальная температура - минимум температуры воздуха на высоте 2 м над землей.
Tmax - Максимальная температура - максимум температуры воздуха на высоте 2 м над землей.
R - Количество осадков - Количество выпавших осадков за период времени, мм. При наведении курсора мыши на число - период времени, за который выпало указанное количество осадков.
R24 - Количество осадков - Количество выпавших осадков за 24 часа, мм.
S - Снежный покров - Высота снежного покрова, см. При наведении курсора мыши на число - состояние снежного покрова и степень покрытия местности в баллах.